Regional Weather Roundup
Issued by NWS

Home | Current Version | Previous Version | Text Only | Print | Product List | Glossary Off
Versions: 1 2 3 4 5 6 7 8 9 10 11 12 13 14 15 16 17 18 19 20 21 22 23 24 25 26 27 28 29 30 31 32 33 34 35 36 37 38 39 40 41 42 43 44 45 46 47 48 49 50

000
ASUS43 KDTX 240110
RWRMI
MICHIGAN HOURLY REGIONAL WEATHER ROUNDUP
NATIONAL WEATHER SERVICE DETROIT/PONTIAC MI
900 PM EDT WED JUL 23 2014

NOTE: "FAIR" INDICATES FEW OR NO CLOUDS BELOW 12,000 FEET WITH NO
SIGNIFICANT WEATHER AND/OR OBSTRUCTION TO VISIBILITY.

MIZ047>049-052>055-059>063-066>070-074>076-081>083-240200-
SOUTHEAST LOWER MICHIGAN

CITY           SKY/WX    TMP DP  RH WIND       PRES   REMARKS
ADRIAN         CLOUDY    71  56  58 E5        30.07R
ALMA           PTCLDY    64  53  65 N7        30.11S
ANN ARBOR      CLOUDY    69  54  58 NE10      30.07R
BAD AXE        PTCLDY    61  49  64 N3        30.10S
CARO           MOCLDY    64  53  68 NE3       30.10R
DETROIT CITY   CLEAR     68  54  60 NE7       30.08R
DETROIT        MOCLDY    69  54  58 N9        30.07R
FLINT          CLOUDY    67  54  63 NE12      30.10R
GROSSE ILE     CLEAR     66  57  72 E7        30.06R
HILLSDALE      PTCLDY    69  56  63 N6        30.08R
HOWELL         CLOUDY    66  55  67 N5        30.08S

CITY           SKY/WX    TMP DP  RH WIND       PRES   REMARKS
JACKSON        CLOUDY    69  56  62 N7        30.08R
LAMBERTVILLE   PTCLDY    68  57  68 CALM      30.07R
LANSING        PTCLDY    66  54  65 N10       30.09R
LAPEER         FAIR      62  53  71 N3        30.10S
MASON          CLOUDY    67  56  68 N6        30.08S
MONROE         CLEAR     66  55  68 NE3       30.05R
MT. CLEMENS    CLEAR     64  55  73 N10       30.07R
PONTIAC        PTCLDY    65  54  67 N10       30.09R
PORT HOPE        N/A     65  54  67 CALM      30.08S
PORT HURON     CLEAR     59  54  82 N6        30.09S
TRI CITIES     CLOUDY    67  55  65 NE5       30.11R
TROY           CLEAR     66  55  66 N8        30.09R
SAGINAW HB     CLOUDY    64  50  59 NE5       30.10R
$$
MIZ043>046-050>051-056>058-064>065-071>073-077>080-240200-
SOUTHWEST LOWER MICHIGAN

CITY           SKY/WX    TMP DP  RH WIND       PRES   REMARKS
BATTLE CREEK   CLEAR     69  54  58 N8        30.09R
BENTON HARBOR  CLEAR     62  56  80 N6        30.10S
BIG RAPIDS     MOCLDY    63  52  67 N3        30.14R
COLDWATER      CLEAR     70  55  60 N7        30.08R
FREMONT        FAIR      64  46  52 N9        30.13R
HOLLAND        CLEAR     66  57  72 NW5       30.11R
GRAND RAPIDS   PTCLDY    66  53  63 N10       30.11R
IONIA          FAIR      64  54  70 N7G16     30.10R
KALAMAZOO      MOCLDY    69  55  60 N8        30.09R
LUDINGTON      MOCLDY    60  53  78 N6        30.16R
MARSHALL       PTCLDY    67  55  66 N3        30.08S
MOUNT PLEASANT MOCLDY    65  55  70 NW5       30.11S
MUSKEGON       MOCLDY    66  54  65 N13       30.13R
SOUTH HAVEN    CLEAR     63  58  86 N8        30.10S
$$
MIZ016>042-240200-
NORTHERN LOWER MICHIGAN

CITY           SKY/WX    TMP DP  RH WIND       PRES   REMARKS
ALPENA         PTCLDY    64  51  62 NW12      30.11R
BEAVER ISLAND  CLEAR     63  50  64 N7        30.16S
BELLAIRE       PTCLDY    64  50  61 NW5       30.14R
CADILLAC       MOCLDY    60  50  67 N6        30.14R
CHARLEVOIX     CLEAR     64  54  69 N10       30.18R
FRANKFORT      CLEAR     63  51  65 N3        30.16R
GAYLORD        CLEAR     60  50  69 CALM      30.14R
GRAYLING       PTCLDY    60  53  76 NW6       30.14S
HARBOR SPRINGS PTCLDY    65  49  56 N5        30.14S
HOUGHTON LAKE  MOCLDY    62  53  72 N6        30.13R
MANISTEE       PTCLDY    63  52  67 NW5       30.16S
OSCODA         PTCLDY    66  47  49 N7        30.09S
PELLSTON       CLEAR     63  51  65 N6        30.15R
ROGERS CITY    PTCLDY    62  55  77 NW8G16    30.13S
TRAVERSE CITY  PTCLDY    65  50  58 N7        30.13S
$$
MIZ007>008-015-240200-
EASTERN UPPER MICHIGAN

CITY           SKY/WX    TMP DP  RH WIND       PRES   REMARKS
KINROSS        CLEAR     57  48  72 NW9       30.15S
MACKINAC ISLAN CLEAR     60  50  69 N9        30.14S
NEWBERRY       CLEAR     57  47  67 NW7       30.16S
S. S. MARIE    CLEAR     55  47  74 NW7       30.13F
MUNISING         N/A     59  50  72 CALM      30.17F
$$
MIZ004>006-011>014-085-240200-
CENTRAL UPPER MICHIGAN

CITY           SKY/WX    TMP DP  RH WIND       PRES   REMARKS
MANISTIQUE     CLEAR     61  47  59 N5        30.17S
ESCANABA       CLEAR     64  45  48 N3        30.17S
MENOMINEE      CLEAR     66  52  59 E6        30.16S
SAWYER-GWINN   CLEAR     63  46  55 NE6       30.19F
$$
MIZ001>003-009>011-084-240200-
WESTERN UPPER MICHIGAN

CITY           SKY/WX    TMP DP  RH WIND       PRES   REMARKS
IRON MOUNTAIN  PTCLDY    66  47  50 N3        30.16F
HOUGHTON       CLEAR     62  47  57 NW6       30.19F
COPPER HARBOR    N/A     61  55  81 N9        30.18F
$$

ABBREVIATIONS USED IN REMARKS
   TC - TEMPERATURE IN CELSIUS
  WCI - WIND CHILL INDEX
   HX - HEAT INDEX
  VSB - VISIBILITY



USA.gov is the U.S. government's official web portal to all federal, state and local government web resources and services.